Skip Page Navigation
NASA JPL Caltech
NASA Logo - Jet Propulsion Laboratory + View the NASA Portal
+ Center for Near-Earth Object Studies
JPL Home Earth Solar System Stars & Galaxies Technology
JPL Solar System Dynamics
BODIES ORBITS EPHEMERIDES TOOLS PHYSICAL DATA DISCOVERY FAQ SITE MAP
IMPORTANT: The SSD Announcement email list is now available. Major changes are coming in the near future, including possible hostname and/or URL changes. To be notified of such changes, subscribe to this email list.

Please visit this page for more details.


JPL Small-Body Database Browser
Search: [ help ]  
136128 (2003 SO36)
Classification: Main-belt Asteroid          SPK-ID: 2136128
Ephemeris | Orbit Diagram | Orbital Elements | Mission Design | Physical Parameters | Discovery Circumstances ]

[ show orbit diagram ]
Orbital Elements at Epoch 2458600.5 (2019-Apr-27.0) TDB
Reference: JPL 15 (heliocentric ecliptic J2000)
 Element Value Uncertainty (1-sigma)   Units 
e .120608147481824 4.3723e-08  
a 2.246888659561534 1.025e-08 au
q 1.975895580733899 9.5065e-08 au
i .896044186688188 4.442e-06 deg
node 44.39747756639071 0.00029866 deg
peri 17.4348234041228 0.00029942 deg
M 181.1397556427645 2.2095e-05 deg
tp 2459211.698210867966
(2020-Dec-28.19821087)
7.73e-05 TDB
period 1230.185929261069
3.37
8.4177e-06
2.305e-08
d
yr
n .2926386909792081 2.0024e-09 deg/d
Q 2.517881738389169 1.1486e-08 au
  Orbit Determination Parameters
   # obs. used (total)      504  
   data-arc span      6807 days (18.64 yr)  
   first obs. used      2000-12-30  
   last obs. used      2019-08-20  
   planetary ephem.      DE431  
   SB-pert. ephem.      SB431-N16  
   condition code      0  
   norm. resid. RMS      .59604  
   source      ORB  
   producer      Otto Matic  
   solution date      2019-Sep-24 03:27:50  

Additional Information
 Earth MOID = .988434 au 
 Jupiter MOID = 2.75103 au 
 T_jup = 3.620 
[ show covariance matrix ]

Ephemeris | Orbit Diagram | Orbital Elements | Mission Design | Physical Parameters | Discovery Circumstances ]

Physical Parameter Table
Parameter Symbol Value Units Sigma Reference Notes
absolute magnitude H 16.8   n/a MPO436669  

136128 (2003 SO36)          Discovered 2003-Sep-17 by Spacewatch at Kitt Peak
Reference: 20060907/Numbers.arcLast Updated: 2006-09-10

Alternate Designations
 2003 SO36 = 2000 YV75 
Ephemeris | Orbit Diagram | Orbital Elements | Mission Design | Physical Parameters | Discovery Circumstances ]
ABOUT SSD CREDITS/AWARDS PRIVACY/COPYRIGHT GLOSSARY LINKS
FirstGov
(server date/time)  
NASA Home Page
Site Manager:   Ryan S. Park
Webmaster  Alan B. Chamberlin